,,Stat6,,Stat2,,Stat8,,Stat9,,Stat10,,Wind1,,Wind1,
time,status,PA1M_AVG,status,PR1M_SUM,status,RH1M_AVG,status,SR1M_AVG,status,TA1M_AVG,status,W1dAve1m,status,W1sAve1m,
2005-08-30, 00:00:01,VALID,917.756,VALID,0,VALID,100,VALID,0.0169808,VALID,19.3644,VALID,84,VALID,1.01523,
2005-08-30, 00:01:00,VALID,917.748,VALID,0,VALID,100,VALID,0.0679233,VALID,19.3711,VALID,87,VALID,0.87779,
2005-08-30, 00:02:00,VALID,917.756,VALID,0,VALID,100,VALID,0.0679233,VALID,19.3547,VALID,89,VALID,0.964939,
2005-08-30, 00:03:00,VALID,917.735,VALID,0,VALID,100,VALID,0.101885,VALID,19.3478,VALID,103,VALID,0.887463,
2005-08-30, 00:04:00,VALID,917.707,VALID,0,VALID,100,VALID,0.0339617,VALID,19.3386,VALID,105,VALID,0.808416,
2005-08-30, 00:05:00,VALID,917.683,VALID,0,VALID,100,VALID,0.0679233,VALID,19.3284,VALID,80,VALID,0.560785,
2005-08-30, 00:06:00,VALID,917.638,VALID,0,VALID,100,VALID,0.0339617,VALID,19.3185,VALID,69,VALID,0.504179,
2005-08-30, 00:07:00,VALID,917.605,VALID,0,VALID,100,VALID,0.0849042,VALID,19.3413,VALID,53,VALID,0.467634,
2005-08-30, 00:08:00,VALID,917.558,VALID,0,VALID,100,VALID,0.0849042,VALID,19.3771,VALID,53,VALID,0.0685369,
2005-08-30, 00:09:00,VALID,917.527,VALID,0,VALID,100,VALID,0.0679233,VALID,19.4029,VALID,53,VALID,0.147461,
2005-08-30, 00:10:00,VALID,917.485,VALID,0,VALID,100,VALID,0.0509425,VALID,19.4094,VALID,53,VALID,0.0202415,
2005-08-30, 00:11:00,VALID,917.453,VALID,0.2,VALID,100,VALID,0.0509425,VALID,19.4056,VALID,42,VALID,0.129724,
2005-08-30, 00:12:00,VALID,917.416,VALID,0,VALID,100,VALID,0.0509425,VALID,19.3895,VALID,355,VALID,0.552015,
2005-08-30, 00:13:00,VALID,917.389,VALID,0,VALID,100,VALID,0.0849042,VALID,19.396,VALID,295,VALID,0.597284,
2005-08-30, 00:14:00,VALID,917.347,VALID,0,VALID,100,VALID,0.0339617,VALID,19.3897,VALID,293,VALID,0.375372,
2005-08-30, 00:15:00,VALID,917.338,VALID,0,VALID,100,VALID,-0.0169808,VALID,19.3972,VALID,289,VALID,0.410823,
2005-08-30, 00:16:00,VALID,917.323,VALID,0,VALID,100,VALID,-0.0339617,VALID,19.3912,VALID,289,VALID,0.363181,
2005-08-30, 00:17:00,VALID,917.324,VALID,0,VALID,100,VALID,-0.0169808,VALID,19.4044,VALID,289,VALID,0.171684,
2005-08-30, 00:18:00,VALID,917.322,VALID,0,VALID,100,VALID,-0.0339617,VALID,19.3882,VALID,289,VALID,0.375363,
2005-08-30, 00:19:00,VALID,917.338,VALID,0,VALID,100,VALID,-0.0339617,VALID,19.4173,VALID,289,VALID,0.286685,
2005-08-30, 00:20:00,VALID,917.335,VALID,0,VALID,100,VALID,-0.0509425,VALID,19.3942,VALID,289,VALID,0.399148,
2005-08-30, 00:21:00,VALID,917.35,VALID,0,VALID,100,VALID,-0.0509425,VALID,19.3982,VALID,292,VALID,0.396949,
2005-08-30, 00:22:00,VALID,917.351,VALID,0,VALID,100,VALID,-0.0679233,VALID,19.3624,VALID,302,VALID,0.442116,
2005-08-30, 00:23:00,VALID,917.36,VALID,0,VALID,100,VALID,-0.0339617,VALID,19.3587,VALID,309,VALID,0.439648,
2005-08-30, 00:24:00,VALID,917.343,VALID,0,VALID,100,VALID,-0.0339617,VALID,19.3847,VALID,310,VALID,0.306424,
2005-08-30, 00:25:00,VALID,917.336,VALID,0,VALID,100,VALID,-0.0509425,VALID,19.382,VALID,309,VALID,0.15997,
2005-08-30, 00:26:00,VALID,917.332,VALID,0,VALID,100,VALID,-0.0509425,VALID,19.3949,VALID,309,VALID,0.228609,
2005-08-30, 00:27:00,VALID,917.331,VALID,0,VALID,100,VALID,-0.0509425,VALID,19.3917,VALID,309,VALID,0.339931,
2005-08-30, 00:28:00,VALID,917.315,VALID,0,VALID,100,VALID,-0.0339617,VALID,19.385,VALID,308,VALID,0.30888,
2005-08-30, 00:29:01,VALID,917.327,VALID,0,VALID,100,VALID,-0.0509425,VALID,19.3718,VALID,308,VALID,0.142299,
2005-08-30, 00:30:00,VALID,917.302,VALID,0,VALID,100,VALID,0,VALID,19.3751,VALID,308,VALID,0.124826,
2005-08-30, 00:31:01,VALID,917.3,VALID,0.2,VALID,100,VALID,0,VALID,19.3684,VALID,308,VALID,0.214944,
2005-08-30, 00:32:00,VALID,917.298,VALID,0,VALID,100,VALID,0,VALID,19.3912,VALID,308,VALID,0.193274,
2005-08-30, 00:33:00,VALID,917.328,VALID,0,VALID,100,VALID,-0.0169808,VALID,19.3818,VALID,308,VALID,0.354833,
2005-08-30, 00:34:00,VALID,917.349,VALID,0,VALID,100,VALID,0,VALID,19.3552,VALID,308,VALID,0.431323,
2005-08-30, 00:35:00,VALID,917.376,VALID,0,VALID,100,VALID,0,VALID,19.3391,VALID,308,VALID,0.243676,
2005-08-30, 00:36:00,VALID,917.367,VALID,0,VALID,100,VALID,0,VALID,19.3395,VALID,308,VALID,0.012718,
2005-08-30, 00:37:01,VALID,917.39,VALID,0,VALID,100,VALID,0,VALID,19.3358,VALID,308,VALID,0,
2005-08-30, 00:38:01,VALID,917.386,VALID,0,VALID,100,VALID,0,VALID,19.3522,VALID,308,VALID,0.132068,
2005-08-30, 00:39:00,VALID,917.396,VALID,0,VALID,100,VALID,-0.0169808,VALID,19.3654,VALID,307,VALID,0.364648,
2005-08-30, 00:40:00,VALID,917.386,VALID,0,VALID,100,VALID,0,VALID,19.3656,VALID,229,VALID,0.555432,
2005-08-30, 00:41:00,VALID,917.364,VALID,0,VALID,100,VALID,-0.0169808,VALID,19.3723,VALID,166,VALID,0.56359,
2005-08-30, 00:42:00,VALID,917.349,VALID,0,VALID,100,VALID,0,VALID,19.346,VALID,166,VALID,0.570499,
2005-08-30, 00:43:00,VALID,917.342,VALID,0,VALID,100,VALID,-0.0169808,VALID,19.3266,VALID,155,VALID,0.56032,
2005-08-30, 00:44:01,VALID,917.334,VALID,0,VALID,100,VALID,-0.0169808,VALID,19.3167,VALID,145,VALID,0.392882,
2005-08-30, 00:45:00,VALID,917.3,VALID,0,VALID,100,VALID,-0.0339617,VALID,19.3072,VALID,146,VALID,0.407422,
2005-08-30, 00:46:01,VALID,917.264,VALID,0,VALID,100,VALID,0,VALID,19.2943,VALID,146,VALID,0.272104,
2005-08-30, 00:47:00,VALID,917.237,VALID,0,VALID,100,VALID,0,VALID,19.2814,VALID,146,VALID,0.050071,
2005-08-30, 00:48:01,VALID,917.198,VALID,0,VALID,100,VALID,-0.0169808,VALID,19.2874,VALID,112,VALID,0.212426,
2005-08-30, 00:49:00,VALID,917.188,VALID,0,VALID,100,VALID,0,VALID,19.31,VALID,20,VALID,0.287972,
2005-08-30, 00:50:00,VALID,917.143,VALID,0,VALID,100,VALID,0.0169808,VALID,19.3391,VALID,13,VALID,0.359553,
2005-08-30, 00:51:00,VALID,917.125,VALID,0.2,VALID,100,VALID,0,VALID,19.3621,VALID,7,VALID,0.252418,
2005-08-30, 00:52:00,VALID,917.093,VALID,0,VALID,100,VALID,0,VALID,19.3391,VALID,7,VALID,0.156441,
2005-08-30, 00:53:00,VALID,917.099,VALID,0,VALID,100,VALID,-0.0169808,VALID,19.346,VALID,7,VALID,0,
2005-08-30, 00:54:01,VALID,917.074,VALID,0,VALID,100,VALID,-0.0169808,VALID,19.3656,VALID,7,VALID,0.00971799,
2005-08-30, 00:55:00,VALID,917.073,VALID,0,VALID,100,VALID,0,VALID,19.3713,VALID,7,VALID,0.00981105,
2005-08-30, 00:56:00,VALID,917.077,VALID,0,VALID,100,VALID,0,VALID,19.3818,VALID,7,VALID,0.413662,
2005-08-30, 00:57:00,VALID,917.096,VALID,0,VALID,100,VALID,0,VALID,19.3587,VALID,53,VALID,0.649926,
2005-08-30, 00:58:01,VALID,917.091,VALID,0,VALID,100,VALID,0,VALID,19.3207,VALID,74,VALID,0.87793,
2005-08-30, 00:59:00,VALID,917.096,VALID,0,VALID,99.9812,VALID,0.0169808,VALID,19.2687,VALID,89,VALID,0.890443,
2005-08-30, 01:00:01,VALID,917.105,VALID,0,VALID,100,VALID,0,VALID,19.2166,VALID,104,VALID,1.17135,
2005-08-30, 01:01:01,VALID,917.104,VALID,0,VALID,100,VALID,0,VALID,19.1945,VALID,112,VALID,1.07701,
2005-08-30, 01:02:00,VALID,917.094,VALID,0,VALID,100,VALID,0,VALID,19.1684,VALID,110,VALID,1.03516,
2005-08-30, 01:03:00,VALID,917.074,VALID,0,VALID,100,VALID,0,VALID,19.1458,VALID,105,VALID,0.823847,
2005-08-30, 01:04:00,VALID,917.072,VALID,0,VALID,100,VALID,0.0169808,VALID,19.1264,VALID,104,VALID,1.11506,
2005-08-30, 01:05:00,VALID,917.052,VALID,0,VALID,100,VALID,0,VALID,19.1167,VALID,89,VALID,0.738186,
2005-08-30, 01:06:01,VALID,917.052,VALID,0,VALID,100,VALID,0.0169808,VALID,19.1133,VALID,85,VALID,0.505859,
2005-08-30, 01:07:01,VALID,917.057,VALID,0,VALID,100,VALID,0,VALID,19.0937,VALID,85,VALID,0.275724,
2005-08-30, 01:08:00,VALID,917.059,VALID,0,VALID,100,VALID,-0.0169808,VALID,19.0971,VALID,83,VALID,0.170632,
2005-08-30, 01:09:00,VALID,917.078,VALID,0,VALID,100,VALID,0,VALID,19.1073,VALID,60,VALID,0.477983,
2005-08-30, 01:10:01,VALID,917.062,VALID,0,VALID,100,VALID,-0.0169808,VALID,19.1267,VALID,29,VALID,0.585379,
2005-08-30, 01:11:00,VALID,917.055,VALID,0,VALID,100,VALID,0,VALID,19.1163,VALID,28,VALID,0.711301,
2005-08-30, 01:12:00,VALID,917.044,VALID,0,VALID,100,VALID,0,VALID,19.1073,VALID,27,VALID,0.805596,
2005-08-30, 01:13:00,VALID,917.021,VALID,0,VALID,100,VALID,0,VALID,19.0874,VALID,20,VALID,0.960582,
2005-08-30, 01:14:01,VALID,916.991,VALID,0,VALID,100,VALID,-0.0169808,VALID,19.0678,VALID,21,VALID,0.933594,
2005-08-30, 01:15:00,VALID,916.985,VALID,0,VALID,100,VALID,0,VALID,19.0718,VALID,20,VALID,1.12221,
2005-08-30, 01:16:00,VALID,916.983,VALID,0,VALID,100,VALID,0,VALID,19.0554,VALID,17,VALID,1.05251,
2005-08-30, 01:17:01,VALID,916.97,VALID,0,VALID,100,VALID,0.0169808,VALID,19.036,VALID,13,VALID,0.656822,
2005-08-30, 01:18:01,VALID,916.965,VALID,0,VALID,100,VALID,0,VALID,19.0199,VALID,341,VALID,0.447359,
2005-08-30, 01:19:00,VALID,916.938,VALID,0,VALID,100,VALID,-0.0339617,VALID,19.0459,VALID,332,VALID,0.40067,
2005-08-30, 01:20:00,VALID,916.926,VALID,0,VALID,100,VALID,0,VALID,19.0593,VALID,332,VALID,0.499023,
2005-08-30, 01:21:01,VALID,916.906,VALID,0,VALID,100,VALID,0,VALID,19.0266,VALID,332,VALID,0.393483,
2005-08-30, 01:22:00,VALID,916.889,VALID,0,VALID,100,VALID,0,VALID,19.0268,VALID,332,VALID,0.176339,
2005-08-30, 01:23:01,VALID,916.857,VALID,0,VALID,100,VALID,0.0169808,VALID,19.0323,VALID,332,VALID,0.0249619,
2005-08-30, 01:24:01,VALID,916.867,VALID,0,VALID,100,VALID,0,VALID,19.0427,VALID,332,VALID,0.0783067,
2005-08-30, 01:25:01,VALID,916.85,VALID,0,VALID,100,VALID,0,VALID,19.0358,VALID,332,VALID,0.0375,
2005-08-30, 01:26:00,VALID,916.837,VALID,0,VALID,100,VALID,0.0169808,VALID,19.0593,VALID,332,VALID,0,
2005-08-30, 01:27:00,VALID,916.819,VALID,0,VALID,100,VALID,0.0169808,VALID,19.0556,VALID,332,VALID,0,
2005-08-30, 01:28:01,VALID,916.811,VALID,0,VALID,100,VALID,0,VALID,19.0616,VALID,332,VALID,0.151296,
2005-08-30, 01:29:01,VALID,916.791,VALID,0,VALID,100,VALID,0,VALID,19.078,VALID,332,VALID,0.338299,
2005-08-30, 01:30:00,VALID,916.788,VALID,0,VALID,100,VALID,0,VALID,19.0648,VALID,330,VALID,0.561719,
2005-08-30, 01:31:01,VALID,916.785,VALID,0,VALID,100,VALID,-0.0169808,VALID,19.0392,VALID,329,VALID,0.571429,
2005-08-30, 01:32:00,VALID,916.782,VALID,0,VALID,100,VALID,-0.0169808,VALID,19.0261,VALID,337,VALID,0.713605,
2005-08-30, 01:33:00,VALID,916.781,VALID,0,VALID,100,VALID,0.0169808,VALID,19.0203,VALID,4,VALID,1.22832,
2005-08-30, 01:34:01,VALID,916.809,VALID,0,VALID,100,VALID,0,VALID,19.001,VALID,8,VALID,0.858232,
2005-08-30, 01:35:01,VALID,916.805,VALID,0,VALID,100,VALID,0.0169808,VALID,18.9977,VALID,29,VALID,0.866186,
2005-08-30, 01:36:00,VALID,916.792,VALID,0,VALID,100,VALID,0,VALID,18.9839,VALID,356,VALID,0.813388,
2005-08-30, 01:37:01,VALID,916.809,VALID,0,VALID,100,VALID,0.0169808,VALID,18.9903,VALID,7,VALID,0.672805,
2005-08-30, 01:38:01,VALID,916.784,VALID,0,VALID,100,VALID,0.0169808,VALID,19.004,VALID,18,VALID,0.985863,
2005-08-30, 01:39:01,VALID,916.771,VALID,0,VALID,100,VALID,0.0339617,VALID,18.9908,VALID,11,VALID,1.37463,
2005-08-30, 01:40:00,VALID,916.738,VALID,0,VALID,100,VALID,-0.0339617,VALID,18.9779,VALID,7,VALID,1.5823,
2005-08-30, 01:41:00,VALID,916.704,VALID,0,VALID,100,VALID,-0.0339617,VALID,18.9525,VALID,14,VALID,1.90934,
2005-08-30, 01:42:00,VALID,916.685,VALID,0,VALID,100,VALID,0,VALID,18.9329,VALID,12,VALID,1.54724,
2005-08-30, 01:43:00,VALID,916.641,VALID,0,VALID,100,VALID,-0.0169808,VALID,18.9101,VALID,9,VALID,1.63045,
2005-08-30, 01:44:00,VALID,916.629,VALID,0,VALID,100,VALID,-0.0169808,VALID,18.9076,VALID,12,VALID,1.71309,
2005-08-30, 01:45:00,VALID,916.625,VALID,0,VALID,100,VALID,-0.0169808,VALID,18.9039,VALID,17,VALID,1.83224,
2005-08-30, 01:46:01,VALID,916.625,VALID,0,VALID,100,VALID,-0.0339617,VALID,18.8944,VALID,3,VALID,1.4697,
2005-08-30, 01:47:00,VALID,916.631,VALID,0,VALID,100,VALID,0,VALID,18.8817,VALID,5,VALID,1.35247,
2005-08-30, 01:48:01,VALID,916.628,VALID,0,VALID,100,VALID,-0.0169808,VALID,18.8843,VALID,17,VALID,1.71763,
2005-08-30, 01:49:00,VALID,916.639,VALID,0,VALID,100,VALID,-0.0169808,VALID,18.8947,VALID,26,VALID,1.5385,
2005-08-30, 01:50:00,VALID,916.632,VALID,0,VALID,100,VALID,-0.0169808,VALID,18.8942,VALID,31,VALID,1.22768,
2005-08-30, 01:51:00,VALID,916.624,VALID,0,VALID,100,VALID,-0.0169808,VALID,18.9205,VALID,15,VALID,1.06364,
2005-08-30, 01:52:01,VALID,916.596,VALID,0,VALID,100,VALID,-0.0339617,VALID,18.9237,VALID,19,VALID,1.62326,
2005-08-30, 01:53:00,VALID,916.566,VALID,0,VALID,100,VALID,0,VALID,18.9269,VALID,17,VALID,1.2669,
2005-08-30, 01:54:01,VALID,916.56,VALID,0,VALID,100,VALID,0,VALID,18.9396,VALID,16,VALID,1.12233,
2005-08-30, 01:55:00,VALID,916.537,VALID,0,VALID,100,VALID,0,VALID,18.9265,VALID,346,VALID,1.27344,
2005-08-30, 01:56:01,VALID,916.529,VALID,0,VALID,100,VALID,-0.0339617,VALID,18.914,VALID,349,VALID,0.971413,
2005-08-30, 01:57:00,VALID,916.514,VALID,0,VALID,100,VALID,-0.0169808,VALID,18.9304,VALID,355,VALID,1.11458,
2005-08-30, 01:58:00,VALID,916.511,VALID,0,VALID,100,VALID,0,VALID,18.9332,VALID,4,VALID,0.733631,
2005-08-30, 01:59:01,VALID,916.522,VALID,0,VALID,100,VALID,-0.0169808,VALID,18.9558,VALID,2,VALID,0.587358,
2005-08-30, 02:00:00,VALID,916.527,VALID,0,VALID,100,VALID,-0.0169808,VALID,18.9657,VALID,359,VALID,0.460352,
2005-08-30, 02:01:00,VALID,916.528,VALID,0,VALID,100,VALID,0,VALID,18.9724,VALID,343,VALID,0.781771,
2005-08-30, 02:02:00,VALID,916.529,VALID,0,VALID,100,VALID,-0.0169808,VALID,18.9652,VALID,350,VALID,0.802148,
2005-08-30, 02:03:01,VALID,916.518,VALID,0,VALID,100,VALID,-0.0339617,VALID,18.9528,VALID,349,VALID,0.84593,
2005-08-30, 02:04:01,VALID,916.516,VALID,0,VALID,100,VALID,0,VALID,18.9334,VALID,345,VALID,0.755345,
2005-08-30, 02:05:00,VALID,916.493,VALID,0,VALID,100,VALID,-0.0169808,VALID,18.9302,VALID,352,VALID,0.547917,
2005-08-30, 02:06:00,VALID,916.499,VALID,0,VALID,100,VALID,0,VALID,18.9466,VALID,352,VALID,0.307031,
2005-08-30, 02:07:01,VALID,916.5,VALID,0,VALID,100,VALID,0,VALID,18.9657,VALID,352,VALID,0.15968,
2005-08-30, 02:08:00,VALID,916.476,VALID,0,VALID,100,VALID,0,VALID,18.956,VALID,20,VALID,0.297408,
2005-08-30, 02:09:01,VALID,916.454,VALID,0,VALID,100,VALID,0,VALID,18.9461,VALID,98,VALID,0.644965,
2005-08-30, 02:10:00,VALID,916.42,VALID,0,VALID,100,VALID,-0.0339617,VALID,18.9302,VALID,147,VALID,0.864462,
2005-08-30, 02:11:00,VALID,916.402,VALID,0,VALID,100,VALID,-0.0169808,VALID,18.9173,VALID,158,VALID,0.88681,
2005-08-30, 02:12:00,VALID,916.361,VALID,0,VALID,100,VALID,0,VALID,18.9205,VALID,172,VALID,0.775,
2005-08-30, 02:13:00,VALID,916.32,VALID,0,VALID,100,VALID,-0.0339617,VALID,18.9237,VALID,199,VALID,0.55202,
2005-08-30, 02:14:00,VALID,916.276,VALID,0,VALID,100,VALID,0,VALID,18.9369,VALID,225,VALID,0.822461,
2005-08-30, 02:15:01,VALID,916.257,VALID,0,VALID,100,VALID,0.0169808,VALID,18.911,VALID,233,VALID,0.863554,
2005-08-30, 02:16:00,VALID,916.226,VALID,0,VALID,100,VALID,0,VALID,18.8847,VALID,228,VALID,1.10193,
2005-08-30, 02:17:01,VALID,916.204,VALID,0,VALID,100,VALID,0,VALID,18.8654,VALID,233,VALID,0.850291,
2005-08-30, 02:18:01,VALID,916.182,VALID,0,VALID,100,VALID,0.0339617,VALID,18.8723,VALID,192,VALID,0.679155,
2005-08-30, 02:19:01,VALID,916.187,VALID,0,VALID,100,VALID,0.0339617,VALID,18.8716,VALID,206,VALID,0.723656,
2005-08-30, 02:20:01,VALID,916.204,VALID,0,VALID,100,VALID,0.0509425,VALID,18.885,VALID,195,VALID,0.519727,
2005-08-30, 02:21:01,VALID,916.225,VALID,0,VALID,100,VALID,0,VALID,18.8979,VALID,213,VALID,0.357701,
2005-08-30, 02:22:00,VALID,916.234,VALID,0,VALID,100,VALID,0,VALID,18.9011,VALID,177,VALID,0.454799,
2005-08-30, 02:23:00,VALID,916.254,VALID,0,VALID,100,VALID,0,VALID,18.9009,VALID,175,VALID,0.318314,
2005-08-30, 02:24:01,VALID,916.281,VALID,0,VALID,100,VALID,0.0169808,VALID,18.8949,VALID,144,VALID,0.584517,
2005-08-30, 02:25:01,VALID,916.286,VALID,0,VALID,100,VALID,0,VALID,18.8917,VALID,139,VALID,0.602706,
2005-08-30, 02:26:01,VALID,916.296,VALID,0,VALID,100,VALID,0,VALID,18.8917,VALID,135,VALID,0.561198,
2005-08-30, 02:27:01,VALID,916.301,VALID,0,VALID,100,VALID,0.0169808,VALID,18.8852,VALID,132,VALID,0.379407,
2005-08-30, 02:28:01,VALID,916.293,VALID,0,VALID,100,VALID,0.0339617,VALID,18.8748,VALID,118,VALID,0.342634,
2005-08-30, 02:29:01,VALID,916.296,VALID,0,VALID,100,VALID,0.0169808,VALID,18.8884,VALID,76,VALID,0.662427,
2005-08-30, 02:30:01,VALID,916.281,VALID,0,VALID,100,VALID,0.0169808,VALID,18.8847,VALID,68,VALID,0.963844,
2005-08-30, 02:31:01,VALID,916.251,VALID,0,VALID,100,VALID,0,VALID,18.8815,VALID,45,VALID,1.25781,
2005-08-30, 02:32:01,VALID,916.225,VALID,0,VALID,100,VALID,0,VALID,18.8723,VALID,30,VALID,0.700521,
2005-08-30, 02:33:01,VALID,916.2,VALID,0,VALID,100,VALID,0,VALID,18.8691,VALID,27,VALID,0.383575,
2005-08-30, 02:34:01,VALID,916.177,VALID,0,VALID,100,VALID,0,VALID,18.8758,VALID,27,VALID,0.507999,
2005-08-30, 02:35:01,VALID,916.169,VALID,0,VALID,100,VALID,0.0169808,VALID,18.8684,VALID,27,VALID,0.375908,
2005-08-30, 02:36:01,VALID,916.153,VALID,0,VALID,100,VALID,0,VALID,18.888,VALID,27,VALID,0.452744,
2005-08-30, 02:37:01,VALID,916.158,VALID,0,VALID,100,VALID,0,VALID,18.875,VALID,27,VALID,0.60957,
2005-08-30, 02:38:01,VALID,916.155,VALID,0,VALID,100,VALID,0,VALID,18.8693,VALID,27,VALID,0.626524,
2005-08-30, 02:39:01,VALID,916.157,VALID,0,VALID,100,VALID,0,VALID,18.8465,VALID,27,VALID,0.616016,
2005-08-30, 02:40:00,VALID,916.159,VALID,0,VALID,100,VALID,0,VALID,18.8532,VALID,33,VALID,0.702415,
2005-08-30, 02:41:01,VALID,916.175,VALID,0,VALID,100,VALID,0,VALID,18.8365,VALID,41,VALID,0.552269,
2005-08-30, 02:42:01,VALID,916.184,VALID,0,VALID,100,VALID,0,VALID,18.8236,VALID,49,VALID,0.500195,
2005-08-30, 02:43:01,VALID,916.179,VALID,0,VALID,100,VALID,0,VALID,18.7978,VALID,111,VALID,0.598611,
2005-08-30, 02:44:01,VALID,916.193,VALID,0,VALID,100,VALID,0.0169808,VALID,18.798,VALID,117,VALID,0.484738,
2005-08-30, 02:45:01,VALID,916.189,VALID,0,VALID,100,VALID,0,VALID,18.7784,VALID,117,VALID,0.571584,
2005-08-30, 02:46:01,VALID,916.183,VALID,0,VALID,100,VALID,0.0339617,VALID,18.7752,VALID,117,VALID,0.567769,
2005-08-30, 02:47:01,VALID,916.187,VALID,0,VALID,100,VALID,0.0169808,VALID,18.7943,VALID,126,VALID,0.685764,
2005-08-30, 02:48:01,VALID,916.201,VALID,0,VALID,100,VALID,0.0169808,VALID,18.7946,VALID,148,VALID,0.911086,
2005-08-30, 02:49:01,VALID,916.214,VALID,0,VALID,100,VALID,0,VALID,18.798,VALID,167,VALID,0.776042,
2005-08-30, 02:50:01,VALID,916.203,VALID,0,VALID,100,VALID,0,VALID,18.8045,VALID,165,VALID,0.934005,
2005-08-30, 02:51:01,VALID,916.183,VALID,0,VALID,100,VALID,0.0339617,VALID,18.8013,VALID,170,VALID,0.807546,
2005-08-30, 02:52:01,VALID,916.159,VALID,0,VALID,100,VALID,0,VALID,18.8271,VALID,211,VALID,0.655488,
2005-08-30, 02:53:01,VALID,916.12,VALID,0,VALID,100,VALID,0.0169808,VALID,18.8301,VALID,209,VALID,0.505022,
2005-08-30, 02:54:01,VALID,916.081,VALID,0,VALID,100,VALID,0.0169808,VALID,18.8333,VALID,209,VALID,0.42133,
2005-08-30, 02:55:01,VALID,916.046,VALID,0,VALID,100,VALID,0,VALID,18.8398,VALID,162,VALID,0.46875,
2005-08-30, 02:56:01,VALID,915.986,VALID,0,VALID,100,VALID,0.0169808,VALID,18.8529,VALID,162,VALID,0.17207,
2005-08-30, 02:57:01,VALID,915.964,VALID,0,VALID,100,VALID,0.0169808,VALID,18.8527,VALID,162,VALID,0.463246,
2005-08-30, 02:58:01,VALID,915.92,VALID,0,VALID,100,VALID,0,VALID,18.8365,VALID,162,VALID,0.414253,
2005-08-30, 02:59:01,VALID,915.89,VALID,0,VALID,100,VALID,0,VALID,18.8423,VALID,162,VALID,0.262005,
2005-08-30, 03:00:01,VALID,915.838,VALID,0,VALID,100,VALID,-0.0509425,VALID,18.8539,VALID,162,VALID,0.00407609,
2005-08-30, 03:01:00,VALID,915.79,VALID,0,VALID,100,VALID,-0.0679233,VALID,18.8576,VALID,162,VALID,0,
2005-08-30, 03:02:00,VALID,915.763,VALID,0,VALID,100,VALID,-0.101885,VALID,18.8481,VALID,162,VALID,0,
2005-08-30, 03:03:00,VALID,915.743,VALID,0,VALID,100,VALID,-0.118866,VALID,18.8504,VALID,162,VALID,0,
2005-08-30, 03:04:00,VALID,915.735,VALID,0,VALID,100,VALID,-0.0849042,VALID,18.8675,VALID,162,VALID,0,
2005-08-30, 03:05:00,VALID,915.719,VALID,0,VALID,100,VALID,-0.101885,VALID,18.8866,VALID,162,VALID,0,
2005-08-30, 03:06:00,VALID,915.712,VALID,0,VALID,100,VALID,-0.101885,VALID,18.8894,VALID,162,VALID,0,
2005-08-30, 03:07:00,VALID,915.71,VALID,0,VALID,100,VALID,-0.101885,VALID,18.8929,VALID,162,VALID,0,
2005-08-30, 03:08:00,VALID,915.702,VALID,0,VALID,100,VALID,-0.101885,VALID,18.8896,VALID,162,VALID,0,
2005-08-30, 03:09:00,VALID,915.684,VALID,0,VALID,100,VALID,-0.101885,VALID,18.903,VALID,162,VALID,0,
2005-08-30, 03:10:00,VALID,915.671,VALID,0,VALID,100,VALID,-0.101885,VALID,18.9092,VALID,162,VALID,0.191051,
2005-08-30, 03:11:00,VALID,915.672,VALID,0,VALID,100,VALID,-0.101885,VALID,18.9222,VALID,35,VALID,0.640278,
2005-08-30, 03:12:00,VALID,915.651,VALID,0.2,VALID,100,VALID,-0.101885,VALID,18.9058,VALID,13,VALID,0.697493,
2005-08-30, 03:13:00,VALID,915.635,VALID,0,VALID,100,VALID,-0.0849042,VALID,18.8769,VALID,13,VALID,0.748224,
2005-08-30, 03:14:00,VALID,915.627,VALID,0,VALID,100,VALID,-0.0679233,VALID,18.8541,VALID,13,VALID,0.585029,
2005-08-30, 03:15:00,VALID,915.612,VALID,0,VALID,100,VALID,-0.0169808,VALID,18.8365,VALID,13,VALID,0.432106,
2005-08-30, 03:16:00,VALID,915.583,VALID,0,VALID,100,VALID,-0.0169808,VALID,18.8033,VALID,13,VALID,0.270064,
2005-08-30, 03:17:00,VALID,915.578,VALID,0,VALID,100,VALID,-0.0169808,VALID,18.8107,VALID,13,VALID,0,
2005-08-30, 03:18:00,VALID,915.551,VALID,0,VALID,100,VALID,0,VALID,18.8167,VALID,13,VALID,0,
2005-08-30, 03:19:00,VALID,915.528,VALID,0,VALID,100,VALID,0,VALID,18.8075,VALID,13,VALID,0.016369,
2005-08-30, 03:20:00,VALID,915.512,VALID,0,VALID,100,VALID,0.0169808,VALID,18.801,VALID,13,VALID,0.0820313,
2005-08-30, 03:21:00,VALID,915.482,VALID,0,VALID,100,VALID,0,VALID,18.7911,VALID,13,VALID,0.172783,
2005-08-30, 03:22:00,VALID,915.477,VALID,0,VALID,100,VALID,0,VALID,18.775,VALID,46,VALID,0.356889,
2005-08-30, 03:23:00,VALID,915.459,VALID,0,VALID,100,VALID,-0.0339617,VALID,18.7754,VALID,103,VALID,0.468369,
2005-08-30, 03:24:00,VALID,915.465,VALID,0,VALID,100,VALID,-0.0169808,VALID,18.762,VALID,104,VALID,0.418155,
2005-08-30, 03:25:00,VALID,915.47,VALID,0,VALID,100,VALID,0.0169808,VALID,18.7754,VALID,104,VALID,0.519947,
2005-08-30, 03:26:00,VALID,915.478,VALID,0,VALID,100,VALID,0,VALID,18.7819,VALID,106,VALID,0.395419,
2005-08-30, 03:27:00,VALID,915.482,VALID,0,VALID,100,VALID,0,VALID,18.7819,VALID,106,VALID,0.25279,
2005-08-30, 03:28:00,VALID,915.476,VALID,0,VALID,100,VALID,0,VALID,18.7687,VALID,106,VALID,0.451882,
2005-08-30, 03:29:00,VALID,915.465,VALID,0,VALID,100,VALID,0,VALID,18.7521,VALID,106,VALID,0.480291,
2005-08-30, 03:30:00,VALID,915.464,VALID,0,VALID,100,VALID,0.0169808,VALID,18.7487,VALID,106,VALID,0.199132,
2005-08-30, 03:31:00,VALID,915.467,VALID,0,VALID,100,VALID,0,VALID,18.7623,VALID,106,VALID,0.234557,
2005-08-30, 03:32:00,VALID,915.459,VALID,0,VALID,100,VALID,0,VALID,18.7623,VALID,106,VALID,0.279687,
2005-08-30, 03:33:00,VALID,915.456,VALID,0,VALID,100,VALID,-0.0169808,VALID,18.7782,VALID,106,VALID,0.460211,
2005-08-30, 03:34:00,VALID,915.468,VALID,0,VALID,100,VALID,-0.0169808,VALID,18.7814,VALID,42,VALID,0.892969,
2005-08-30, 03:35:00,VALID,915.464,VALID,0,VALID,100,VALID,0,VALID,18.7593,VALID,35,VALID,0.832031,
2005-08-30, 03:36:00,VALID,915.47,VALID,0,VALID,100,VALID,0,VALID,18.7335,VALID,36,VALID,0.673874,
2005-08-30, 03:37:00,VALID,915.475,VALID,0,VALID,100,VALID,-0.0339617,VALID,18.7235,VALID,42,VALID,0.740885,
2005-08-30, 03:38:00,VALID,915.484,VALID,0,VALID,100,VALID,-0.0169808,VALID,18.7171,VALID,62,VALID,0.69407,
2005-08-30, 03:39:00,VALID,915.5,VALID,0,VALID,100,VALID,-0.0169808,VALID,18.7079,VALID,66,VALID,0.537946,
2005-08-30, 03:40:00,VALID,915.503,VALID,0,VALID,100,VALID,0.0169808,VALID,18.6779,VALID,77,VALID,0.763086,
2005-08-30, 03:41:00,VALID,915.507,VALID,0,VALID,100,VALID,-0.0169808,VALID,18.6721,VALID,86,VALID,0.882813,
2005-08-30, 03:42:00,VALID,915.519,VALID,0,VALID,100,VALID,-0.0169808,VALID,18.6657,VALID,95,VALID,0.951563,
2005-08-30, 03:43:00,VALID,915.525,VALID,0,VALID,100,VALID,-0.0169808,VALID,18.6627,VALID,101,VALID,0.889717,
2005-08-30, 03:44:00,VALID,915.531,VALID,0,VALID,100,VALID,-0.0169808,VALID,18.6523,VALID,103,VALID,0.87571,